[[{"header":{"parameterUnit":"m.s-1","parameterCategory":1,"la1":30.2991,"la2":30.254,"lo1":-89.0895,"lo2":-89.0444,"dy":0.0017,"dx":0.0017,"nx":28,"ny":28,"refTime":"2024-05-28T03:00:00:Z","depth":0,"parameterNumber":2,"parameterNumberName":"U-component_of_WINDS"},"data":[0,0,0,0,0,0,0,0,0,0,0,0,0,0,0,0,0,0,0,0,0,0,0,0,0,0,0,0,0,0,0,0,0,0,0,0,0,0,0,0,0,0,0,0,0,0,0,0,0,0,0,0,0,0,0,0,0,0,3.0459,3.0459,0,3.0471,3.0471,3.0472,3.0393,3.0391,3.0389,3.0387,3.0401,3.0404,3.0406,0,0,0,0,0,0,0,0,0,0,0,0,0,3.0371,3.0373,3.0459,3.0459,3.0459,3.0471,3.0471,3.0472,3.0394,3.0391,3.0388,3.0386,3.0401,3.0404,3.0407,0,0,0,0,0,0,0,0,0,0,0,0,0,3.0399,3.0374,3.0459,3.0421,3.0418,3.0471,3.0471,3.0472,3.0394,3.0391,3.0387,3.0384,3.04,3.0403,3.0407,3.0497,0,0,3.0418,3.042,0,0,0,0,0,0,0,0,3.0398,3.0402,3.0427,3.0424,3.0421,3.0427,3.0446,3.048,3.0395,3.0403,3.0387,3.0383,3.0413,3.0415,3.0425,3.0497,3.0498,3.0419,3.0421,3.0422,3.0423,0,0,0,0,0,0,0,3.0396,3.0402,3.0464,3.0427,3.0423,3.0406,3.0406,3.0452,3.0427,3.0402,3.0397,3.0399,3.0411,3.0422,3.0425,3.0498,3.0418,3.0422,3.0424,3.0426,3.0649,3.0653,0,0,0,0,0,0,3.0398,3.04,3.0463,3.0464,3.0401,3.041,3.041,3.0428,3.0426,3.0422,3.0402,3.0395,3.0417,3.0421,3.0425,3.0532,3.0422,3.0426,3.0428,3.0646,3.065,3.0654,0,0,0,0,0,0,3.0397,3.0405,3.0463,3.0431,3.0437,3.0415,3.0436,3.043,3.0441,3.0426,3.0421,3.0418,3.0414,3.042,3.048,3.0531,3.0428,3.0431,3.0641,3.0647,3.0652,3.0746,0,0,0,0,0,0,3.0395,3.0405,3.0437,3.0432,3.0439,3.0516,3.0439,3.0433,3.0448,3.0439,3.0439,3.0436,3.0412,3.0475,3.0484,3.0535,3.0434,3.0637,3.0644,3.0651,3.0738,3.0754,3.0767,0,0,0,0,0,3.0392,3.0462,3.0439,3.0447,3.0479,3.0519,3.0523,3.0494,3.0452,3.0486,3.0476,3.0436,3.0525,3.0482,3.0491,3.0544,3.0633,3.0642,3.065,3.0731,3.0751,3.0767,0,0,0,0,0,0,3.0473,3.0461,3.0435,3.0505,3.0514,3.0506,3.0547,3.0515,3.0536,3.0527,3.0491,3.0491,3.0559,3.0557,3.051,3.0633,3.0572,3.0583,3.0631,3.0649,3.0663,3.0662,3.0437,0,0,0,0,0,3.0499,3.0533,3.052,3.0584,3.059,3.0568,3.0585,3.0562,3.057,3.0573,3.0568,3.0578,3.0608,3.0628,3.0655,3.0738,3.0738,3.0779,3.0794,3.0806,3.0816,3.0863,3.0881,3.0682,3.0682,3.0682,0,0,3.0553,3.0551,3.0574,3.06,3.0604,3.0641,3.0571,3.0612,3.064,3.0579,3.0636,3.0634,3.0642,3.0715,3.0747,3.0716,3.0871,3.0817,3.0827,3.0829,3.0873,3.0892,3.0909,3.0688,3.0686,3.0686,0,0,3.0671,3.0672,3.0726,3.0733,3.074,3.0726,3.074,3.0737,3.0733,3.079,3.0747,3.078,3.0832,3.0841,3.0853,3.098,3.0945,3.099,3.1066,3.1113,3.1128,3.1142,3.1189,3.1206,3.1,3.1,3.1,0,3.0737,3.0789,3.0758,3.0803,3.0817,3.0766,3.0822,3.083,3.0846,3.0858,3.0824,3.0891,3.0893,3.0969,3.1001,3.1011,3.1027,3.0989,3.1128,3.1142,3.1154,3.1199,3.1216,3.1005,3.1005,3.1004,3.1004,0,3.0872,3.0909,3.0953,3.0971,3.099,3.1041,3.1019,3.1043,3.102,3.1011,3.1072,3.1073,3.1101,3.1118,3.1095,3.1192,3.1173,3.1134,3.1072,3.1179,3.1221,3.1237,3.1013,3.1011,3.101,3.1008,0,0,3.1036,3.104,3.1056,3.1065,3.1072,3.1102,3.1152,3.118,3.1202,3.1216,3.1259,3.1307,3.1272,3.1286,3.1265,3.1305,3.1409,3.1262,3.1262,3.129,3.1519,3.1547,3.1567,3.1386,3.1389,3.1392,3.1518,0,3.1152,3.1236,3.1212,3.1297,3.1333,3.1287,3.1331,3.1342,3.1336,3.1367,3.1361,3.1396,3.1347,3.1355,3.1393,3.1388,3.1454,3.1379,3.1427,3.1429,3.1425,3.1589,3.1618,3.1737,3.1534,3.1537,3.1539,0,3.1296,3.1318,3.1407,3.1412,3.1426,3.1466,3.1492,3.1522,3.1534,3.1527,3.1545,3.1517,3.1569,3.1509,3.1581,3.1531,3.155,3.1551,3.1555,3.1557,3.149,3.1596,3.1774,3.1792,3.1563,3.1561,3.156,0,3.1409,3.146,3.1521,3.153,3.1537,3.1567,3.1571,3.1581,3.16,3.1624,3.1637,3.1666,3.1682,3.1707,3.1688,3.1646,3.1765,3.1702,3.1762,3.1763,3.1788,3.1787,3.1972,3.1801,3.1801,3.1801,3.18,0,3.1539,3.1596,3.1572,3.1609,3.1673,3.1647,3.1711,3.171,3.172,3.1758,3.1721,3.1758,3.1732,3.1768,3.1754,3.1818,3.1826,3.1823,3.1819,3.1826,3.1827,3.1837,3.1829,3.1805,3.1804,3.1803,3.1802,0,3.1674,3.1661,3.1724,3.1727,3.173,3.1776,3.1779,3.1816,3.1809,3.1858,3.1868,3.1857,3.1898,3.1883,3.1926,3.1917,3.1999,3.1984,3.1995,3.1991,3.2052,3.2047,3.225,3.2277,3.2089,3.2091,3.2092,0,3.1758,3.1801,3.181,3.1833,3.1841,3.1878,3.1899,3.1876,3.1899,3.192,3.1955,3.1992,3.2021,3.2088,3.2086,3.212,3.2105,3.2174,3.211,3.2117,3.2108,3.2105,3.2111,3.2187,3.2189,3.2191,3.2192,0,3.191,3.1902,3.1932,3.1963,3.1989,3.2011,3.2031,3.2052,3.2031,3.206,3.2102,3.2124,3.217,3.2209,3.224,3.2247,3.2217,3.2213,3.2229,3.2237,3.2242,3.2241,3.203,3.2208,3.2206,3.2205,3.2204,3.2204,3.2022,3.2059,3.2072,3.2109,3.2122,3.2142,3.2177,3.2176,3.221,3.2245,3.2231,3.228,3.2296,3.2335,3.2347,3.2386,3.2359,3.2382,3.2388,3.2394,3.2402,3.2236,3.2392,3.2391,3.2391,3.239,3.239,0,3.2172,3.2179,3.2214,3.2243,3.2273,3.2244,3.2265,3.2293,3.2336,3.2354,3.2384,3.2434,3.2472,3.2475,3.2511,3.2543,3.2531,3.2553,3.2551,3.2553,3.2423,3.2406,3.2563,3.2563,3.2563,3.2563,3.2563,3.2563,3.2253,3.2316,3.2311,3.2381,3.2388,3.2435,3.2451,3.247,3.2485,3.2542,3.2574,3.2576,3.2588,3.2627,3.2662,3.2662,3.2678,3.2706,3.2701,3.2579,3.2562,3.2546,3.253,3.271,3.271,3.2828,3.2829,3.283]},{"header":{"parameterUnit":"m.s-1","parameterCategory":1,"la1":30.2991,"la2":30.254,"lo1":-89.0895,"lo2":-89.0444,"dy":0.0017,"dx":0.0017,"nx":28,"ny":28,"refTime":"2024-05-28T03:00:00:Z","depth":0,"parameterNumber":3,"parameterNumberName":"V-component_of_WINDS"},"data":[0,0,0,0,0,0,0,0,0,0,0,0,0,0,0,0,0,0,0,0,0,0,0,0,0,0,0,0,0,0,0,0,0,0,0,0,0,0,0,0,0,0,0,0,0,0,0,0,0,0,0,0,0,0,0,0,0,0,2.657,2.6572,0,2.6788,2.679,2.6792,2.6845,2.6844,2.6842,2.6841,2.7065,2.7072,2.708,0,0,0,0,0,0,0,0,0,0,0,0,0,2.6203,2.6209,2.657,2.6573,2.6575,2.6787,2.679,2.6793,2.6846,2.6844,2.6842,2.684,2.7063,2.7072,2.708,0,0,0,0,0,0,0,0,0,0,0,0,0,2.6386,2.6212,2.6569,2.6627,2.6634,2.6787,2.679,2.6794,2.6846,2.6844,2.6842,2.684,2.706,2.7071,2.7082,2.7192,0,0,2.7115,2.712,0,0,0,0,0,0,0,0,2.6375,2.6399,2.6616,2.6623,2.6632,2.6787,2.6743,2.6928,2.6846,2.6766,2.6841,2.6839,2.6975,2.6992,2.7038,2.7203,2.7213,2.7116,2.7123,2.7127,2.7131,0,0,0,0,0,0,0,2.6362,2.639,2.6656,2.6619,2.6629,2.6643,2.6667,2.6778,2.688,2.6773,2.6777,2.6802,2.6979,2.7027,2.7044,2.7216,2.7116,2.7125,2.7132,2.7137,2.7485,2.7488,0,0,0,0,0,0,2.6339,2.6379,2.6649,2.6663,2.6495,2.6651,2.6678,2.6739,2.6879,2.6898,2.6803,2.6803,2.701,2.7031,2.7052,2.7193,2.7127,2.7138,2.7144,2.7483,2.7486,2.7489,0,0,0,0,0,0,2.6331,2.6363,2.664,2.6522,2.6559,2.666,2.6729,2.6745,2.6794,2.6902,2.692,2.6834,2.7009,2.7036,2.7158,2.7201,2.7143,2.7153,2.748,2.7484,2.7487,2.7474,0,0,0,0,0,0,2.6321,2.636,2.6402,2.6523,2.6565,2.6742,2.6732,2.6751,2.6812,2.6814,2.6936,2.6954,2.7009,2.7141,2.7168,2.7215,2.7161,2.7476,2.7481,2.7486,2.7471,2.7477,2.7483,0,0,0,0,0,2.6307,2.639,2.6404,2.6436,2.662,2.6744,2.6768,2.683,2.6815,2.686,2.693,2.695,2.7192,2.7153,2.7184,2.7235,2.7474,2.748,2.7486,2.7469,2.7476,2.7483,0,0,0,0,0,0,2.6272,2.6406,2.6424,2.6547,2.6634,2.6753,2.681,2.6835,2.6928,2.6926,2.6998,2.7026,2.7143,2.7201,2.7155,2.7351,2.7333,2.7345,2.7309,2.7317,2.7322,2.7307,2.717,0,0,0,0,0,2.6278,2.6367,2.648,2.6579,2.6621,2.6708,2.6764,2.6804,2.6897,2.6934,2.7013,2.7102,2.7199,2.7261,2.7355,2.748,2.7508,2.753,2.7536,2.754,2.7551,2.7623,2.7635,2.7509,2.7509,2.7509,0,0,2.6293,2.6377,2.6429,2.6574,2.6645,2.6737,2.6738,2.6835,2.6904,2.6949,2.7069,2.7129,2.7235,2.7358,2.7417,2.7411,2.7592,2.7548,2.755,2.7559,2.7631,2.7643,2.7653,2.7513,2.7512,2.7512,0,0,2.6367,2.6438,2.6529,2.6601,2.671,2.6768,2.6789,2.6905,2.6947,2.7068,2.7104,2.7188,2.7352,2.7426,2.7485,2.7588,2.7612,2.7617,2.7647,2.7717,2.7727,2.7736,2.7776,2.7788,2.7627,2.7627,2.7627,0,2.6371,2.651,2.6573,2.6669,2.6732,2.6776,2.687,2.6937,2.7071,2.7114,2.7105,2.7313,2.7387,2.753,2.7555,2.7601,2.7629,2.7604,2.772,2.773,2.774,2.7778,2.7792,2.7627,2.7627,2.7627,2.7627,0,2.6512,2.6608,2.6668,2.6797,2.6867,2.6961,2.7039,2.7103,2.7137,2.7195,2.7319,2.7409,2.7524,2.7561,2.7594,2.7709,2.7702,2.7706,2.7689,2.7751,2.7788,2.7803,2.7627,2.7627,2.7627,2.7627,0,0,2.657,2.6732,2.6754,2.6814,2.6937,2.7013,2.711,2.7222,2.7276,2.7367,2.7451,2.7589,2.7594,2.7661,2.7704,2.7765,2.7844,2.7761,2.7765,2.7776,2.7979,2.7977,2.7993,2.7859,2.7862,2.7865,2.7971,0,2.6661,2.6835,2.6894,2.7039,2.713,2.7173,2.7258,2.7344,2.7401,2.7488,2.7552,2.765,2.7647,2.7688,2.775,2.7821,2.7886,2.7814,2.7941,2.7944,2.7915,2.8012,2.801,2.8106,2.7986,2.7988,2.799,0,2.679,2.6883,2.7036,2.7151,2.7191,2.7266,2.7374,2.7455,2.7554,2.7592,2.7667,2.7706,2.7811,2.7786,2.7932,2.7882,2.7937,2.798,2.7985,2.8001,2.7972,2.8033,2.8138,2.8153,2.8013,2.8011,2.801,0,2.682,2.6983,2.7097,2.7147,2.7282,2.7334,2.7393,2.7489,2.7553,2.7648,2.7691,2.7796,2.7855,2.7936,2.8003,2.7979,2.8144,2.8125,2.8181,2.8179,2.8215,2.8212,2.8333,2.8246,2.8246,2.8246,2.8246,0,2.6916,2.7009,2.7113,2.7183,2.7289,2.7357,2.746,2.7522,2.7607,2.7691,2.7735,2.7813,2.7895,2.7985,2.8037,2.8152,2.8177,2.8212,2.8226,2.821,2.8206,2.8249,2.8245,2.825,2.8249,2.8248,2.8248,0,2.6968,2.7041,2.7168,2.7286,2.7317,2.7391,2.7492,2.7563,2.7622,2.7728,2.7757,2.7851,2.7959,2.8033,2.817,2.8206,2.8331,2.8342,2.8298,2.8305,2.8357,2.8352,2.8511,2.8537,2.8431,2.8432,2.8432,0,2.7025,2.7098,2.7224,2.7283,2.7342,2.7437,2.7503,2.7573,2.764,2.7759,2.7815,2.7926,2.8018,2.8188,2.8269,2.8376,2.8391,2.844,2.8408,2.839,2.8395,2.8391,2.84,2.8445,2.8446,2.8447,2.8447,0,2.7121,2.7154,2.7247,2.7353,2.743,2.7518,2.7605,2.7651,2.7737,2.7811,2.7921,2.7993,2.8134,2.8244,2.8358,2.842,2.8449,2.8456,2.8476,2.8461,2.8434,2.8452,2.8314,2.8453,2.8452,2.8452,2.8452,2.8451,2.718,2.7247,2.7346,2.7449,2.7522,2.7604,2.7676,2.7745,2.7839,2.7959,2.7995,2.811,2.8209,2.8366,2.8429,2.8522,2.8518,2.8545,2.8552,2.8558,2.856,2.8417,2.8542,2.8542,2.8542,2.8542,2.8542,0,2.7279,2.7346,2.7439,2.7561,2.7642,2.7661,2.776,2.7827,2.7928,2.8017,2.8107,2.8235,2.8343,2.8432,2.8544,2.8601,2.8617,2.8628,2.8626,2.864,2.8555,2.8529,2.8613,2.8613,2.8613,2.8613,2.8613,2.8613,2.7341,2.7457,2.7502,2.7655,2.7721,2.7835,2.789,2.7966,2.8038,2.8179,2.8268,2.8325,2.8416,2.8535,2.8634,2.8658,2.8698,2.8707,2.8734,2.8653,2.8645,2.8638,2.8614,2.8714,2.8714,2.8811,2.8812,2.8813]}]]